{"data":{"norad_id":62701,"intl_designator":"2025-009CW","name":"FIREFLY-1","alt_names":[],"object_type":"PAYLOAD","status":"ACTIVE","operator":null,"country":"IND","launch_date":"2025-01-14","launch_site_code":"AFWTR","launch_vehicle":null,"mission":null,"orbit_class":"UNKNOWN","rcs_meters":null,"size_class":null,"mass_kg":null,"dimensions":null,"purposes":[],"wikipedia_slug":null,"has_3d_model":false,"image_url":null,"decayed_at":null,"tle_current":{"epoch":"2026-05-25T04:02:56.148288Z","epoch_age_seconds":63982,"freshness":"FRESH","line1":"1 62701U 25009CW  26145.16870542  .00001373  00000+0  13816-3 0  9998","line2":"2 62701  97.7069 223.7769 0005228  54.3311 305.8394 14.92798155 73885","mean_motion":14.92798155,"eccentricity":0.0005228,"inclination_deg":97.7069,"raan_deg":223.7769,"arg_perigee_deg":54.3311,"mean_anomaly_deg":305.8394,"bstar":0.00013816,"rev_number":7388,"period_min":96.463141729968,"perigee_km":585.5729386686,"apogee_km":592.85800241179,"semimajor_km":6967.3524705402,"source":"CELESTRAK","updated_at":"2026-05-25T13:38:03.203213Z"}}}